Tracking 19651 objects as of 23-Apr-2019
HD Live streaming from Space Station
objects crossing your sky now

GONETS D1 7

Track GONETS D1 7 now!
10-day predictions
GONETS D1 7 is classified as:


NORAD ID: 27058
Int'l Code: 2001-058D
Perigee: 1,418.9 km
Apogee: 1,424.6 km
Inclination: 82.5 °
Period: 114.1 minutes
Semi major axis: 7792 km
RCS: 0.883 m2 (medium)
Launch date: December 28, 2001
Source: Commonwealth of Independent States (former USSR) (CIS)
Launch site: PLESETSK MISSILE AND SPACE COMPLEX (PKMTR)
aabbcc
Your satellite tracking list
Your tracking list is empty




NASA's NSSDC Master Catalog

Two Line Element Set (TLE):
1 27058U 01058D   19112.44617245  .00000022  00000-0  66577-4 0  9992
2 27058  82.5320  77.9680 0003661 134.4517 225.6875 12.62022569797713
Source of the keplerian elements: AFSPC